Time,TemperatureF,DewpointF,PressureIn,WindDirection,WindDirectionDegrees,WindSpeedMPH,WindSpeedGustMPH,Humidity,HourlyPrecipIn,Conditions,Clouds,dailyrainin,SoftwareType,DateUTC
2013-02-11 02:42:00,35.0,30.0,-100.00,ESE,110,2.0,3.0,83,0.00,,,0.04,,2013-02-11 07:42:00,
2013-02-11 02:52:00,35.0,30.0,-100.00,ESE,110,2.0,3.0,83,0.00,,,0.04,,2013-02-11 07:52:00,
2013-02-11 03:01:00,35.0,30.0,-100.00,ESE,110,2.0,3.0,83,0.00,,,0.04,,2013-02-11 08:01:00,
2013-02-11 04:42:00,36.0,32.0,-100.00,NNW,332,8.0,11.0,85,0.00,,,0.04,,2013-02-11 09:42:00,
2013-02-11 04:52:00,36.0,32.0,-100.00,NNW,332,8.0,11.0,85,0.00,,,0.04,,2013-02-11 09:52:00,
2013-02-11 05:02:00,36.0,33.0,-100.00,NW,323,5.0,8.0,87,0.00,,,0.04,,2013-02-11 10:02:00,
2013-02-11 05:11:00,36.0,33.0,-100.00,NW,323,5.0,8.0,87,0.00,,,0.04,,2013-02-11 10:11:00,
2013-02-11 05:21:00,37.0,34.0,-100.00,NW,308,7.0,11.0,88,0.00,,,0.04,,2013-02-11 10:21:00,
2013-02-11 05:22:00,40.0,37.0,-100.00,WNW,295,4.0,7.0,90,0.00,,,0.04,,2013-02-11 10:22:00,
2013-02-11 05:32:00,37.0,34.0,-100.00,NW,308,7.0,11.0,88,0.00,,,0.04,,2013-02-11 10:32:00,
2013-02-11 05:42:00,39.0,37.0,-100.00,NNW,343,5.0,7.0,91,0.00,,,0.04,,2013-02-11 10:42:00,
2013-02-11 05:52:00,39.0,37.0,-100.00,NNW,343,5.0,7.0,91,0.00,,,0.04,,2013-02-11 10:52:00,
2013-02-11 06:02:00,40.0,37.0,-100.00,WNW,295,4.0,7.0,90,0.00,,,0.04,,2013-02-11 11:02:00,
2013-02-11 06:11:00,40.0,37.0,-100.00,WNW,295,4.0,7.0,90,0.00,,,0.04,,2013-02-11 11:11:00,
2013-02-11 07:42:00,47.0,43.0,-100.00,NW,316,11.0,17.0,86,0.00,,,0.04,,2013-02-11 12:42:00,
2013-02-11 07:52:00,47.0,43.0,-100.00,NW,316,11.0,17.0,86,0.00,,,0.04,,2013-02-11 12:52:00,
2013-02-11 08:02:00,47.0,43.0,-100.00,NNW,329,6.0,9.0,86,0.00,,,0.04,,2013-02-11 13:02:00,
2013-02-11 08:12:00,47.0,43.0,-100.00,NNW,329,6.0,9.0,86,0.00,,,0.04,,2013-02-11 13:12:00,
2013-02-11 08:22:00,48.0,44.0,-100.00,NW,311,8.0,14.0,85,0.00,,,0.04,,2013-02-11 13:22:00,
2013-02-11 08:33:00,48.0,44.0,-100.00,NW,311,8.0,14.0,85,0.00,,,0.04,,2013-02-11 13:33:00,
2013-02-11 09:42:00,50.0,45.0,-100.00,NW,305,8.0,12.0,82,0.00,,,0.04,,2013-02-11 14:42:00,
2013-02-11 10:22:00,50.0,45.0,-100.00,NW,305,8.0,12.0,82,0.00,,,0.04,,2013-02-11 15:22:00,
2013-02-11 10:32:00,50.0,45.0,-100.00,NW,305,8.0,12.0,82,0.00,,,0.04,,2013-02-11 15:32:00,
2013-02-11 11:02:00,55.0,46.0,-100.00,NNW,328,5.0,10.0,72,0.00,,,0.04,,2013-02-11 16:02:00,
2013-02-11 11:22:00,53.0,46.0,-100.00,WNW,284,4.0,11.0,76,0.00,,,0.04,,2013-02-11 16:22:00,
2013-02-11 11:32:00,53.0,46.0,-100.00,WNW,284,4.0,11.0,76,0.00,,,0.04,,2013-02-11 16:32:00,
2013-02-11 11:42:00,55.0,46.0,-100.00,NNW,328,5.0,10.0,72,0.00,,,0.04,,2013-02-11 16:42:00,
2013-02-11 11:53:00,55.0,46.0,-100.00,NNW,328,5.0,10.0,72,0.00,,,0.04,,2013-02-11 16:53:00,
2013-02-11 12:02:00,56.0,47.0,-100.00,NW,304,16.0,26.0,69,0.00,,,0.04,,2013-02-11 17:02:00,
2013-02-11 12:42:00,56.0,47.0,-100.00,NW,304,16.0,26.0,69,0.00,,,0.04,,2013-02-11 17:42:00,
2013-02-11 12:53:00,56.0,47.0,-100.00,NW,304,16.0,26.0,69,0.00,,,0.04,,2013-02-11 17:53:00,
2013-02-11 13:02:00,57.0,47.0,-100.00,NW,315,13.0,19.0,68,0.00,,,0.04,,2013-02-11 18:02:00,
2013-02-11 13:42:00,57.0,47.0,-100.00,NW,315,13.0,19.0,68,0.00,,,0.04,,2013-02-11 18:42:00,
2013-02-11 13:54:00,57.0,47.0,-100.00,NW,315,13.0,19.0,68,0.00,,,0.04,,2013-02-11 18:54:00,
2013-02-11 14:22:00,59.0,45.0,-100.00,WNW,298,10.0,16.0,60,0.00,,,0.04,,2013-02-11 19:22:00,
2013-02-11 14:42:00,58.0,46.0,-100.00,NW,308,9.0,14.0,63,0.00,,,0.04,,2013-02-11 19:42:00,
2013-02-11 14:52:00,58.0,46.0,-100.00,NW,308,9.0,14.0,63,0.00,,,0.04,,2013-02-11 19:52:00,
2013-02-11 15:02:00,59.0,45.0,-100.00,WNW,298,10.0,16.0,60,0.00,,,0.04,,2013-02-11 20:02:00,
2013-02-11 15:12:00,59.0,45.0,-100.00,WNW,298,10.0,16.0,60,0.00,,,0.04,,2013-02-11 20:12:00,
2013-02-11 15:42:00,59.0,44.0,-100.00,NW,311,13.0,20.0,57,0.00,,,0.04,,2013-02-11 20:42:00,
2013-02-11 15:52:00,59.0,44.0,-100.00,NW,311,13.0,20.0,57,0.00,,,0.04,,2013-02-11 20:52:00,
2013-02-11 16:02:00,59.0,44.0,-100.00,NW,318,13.0,18.0,57,0.00,,,0.04,,2013-02-11 21:02:00,
2013-02-11 16:12:00,59.0,44.0,-100.00,NW,318,13.0,18.0,57,0.00,,,0.04,,2013-02-11 21:12:00,
2013-02-11 16:22:00,59.0,43.0,-100.00,NW,306,11.0,29.0,56,0.00,,,0.04,,2013-02-11 21:22:00,
2013-02-11 16:32:00,59.0,43.0,-100.00,NW,306,11.0,29.0,56,0.00,,,0.04,,2013-02-11 21:32:00,
2013-02-11 17:02:00,59.0,42.0,-100.00,WNW,298,11.0,20.0,52,0.00,,,0.04,,2013-02-11 22:02:00,
2013-02-11 17:12:00,59.0,42.0,-100.00,WNW,298,11.0,20.0,52,0.00,,,0.04,,2013-02-11 22:12:00,
2013-02-11 17:42:00,58.0,40.0,-100.00,NW,318,8.0,12.0,51,0.00,,,0.04,,2013-02-11 22:42:00,
2013-02-11 17:52:00,58.0,40.0,-100.00,NW,318,8.0,12.0,51,0.00,,,0.04,,2013-02-11 22:52:00,
2013-02-11 18:02:00,58.0,40.0,-100.00,NW,311,11.0,17.0,51,0.00,,,0.04,,2013-02-11 23:02:00,
2013-02-11 18:12:00,58.0,40.0,-100.00,NW,311,11.0,17.0,51,0.00,,,0.04,,2013-02-11 23:12:00,
2013-02-11 18:22:00,57.0,38.0,-100.00,WNW,296,7.0,10.0,48,0.00,,,0.04,,2013-02-11 23:22:00,
2013-02-11 18:32:00,57.0,38.0,-100.00,WNW,296,7.0,10.0,48,0.00,,,0.04,,2013-02-11 23:32:00,
2013-02-11 18:42:00,57.0,37.0,-100.00,NW,306,9.0,11.0,47,0.00,,,0.04,,2013-02-11 23:42:00,
2013-02-11 18:52:00,57.0,37.0,-100.00,NW,306,9.0,11.0,47,0.00,,,0.04,,2013-02-11 23:52:00,
2013-02-11 19:02:00,57.0,34.0,-100.00,NW,304,8.0,13.0,41,0.00,,,0.04,,2013-02-12 00:02:00,
2013-02-11 19:12:00,57.0,34.0,-100.00,NW,304,8.0,13.0,41,0.00,,,0.04,,2013-02-12 00:12:00,
2013-02-11 21:02:00,48.0,19.0,-100.00,WNW,287,6.0,9.0,31,0.00,,,0.04,,2013-02-12 02:02:00,
2013-02-11 21:42:00,48.0,19.0,-100.00,WNW,287,6.0,9.0,31,0.00,,,0.04,,2013-02-12 02:42:00,
2013-02-11 21:53:00,48.0,19.0,-100.00,WNW,287,6.0,9.0,31,0.00,,,0.04,,2013-02-12 02:53:00,
2013-02-11 22:21:00,46.0,19.0,-100.00,WNW,298,7.0,11.0,33,0.00,,,0.04,,2013-02-12 03:21:00,
2013-02-11 22:32:00,46.0,19.0,-100.00,WNW,298,7.0,11.0,33,0.00,,,0.04,,2013-02-12 03:32:00,
2013-02-11 22:42:00,46.0,19.0,-100.00,West,271,8.0,17.0,33,0.00,,,0.04,,2013-02-12 03:42:00,
2013-02-11 23:01:00,47.0,19.0,-100.00,WNW,287,7.0,16.0,33,0.00,,,0.04,,2013-02-12 04:01:00,
2013-02-11 23:11:00,47.0,19.0,-100.00,WNW,287,7.0,16.0,33,0.00,,,0.04,,2013-02-12 04:11:00,
2013-02-11 23:21:00,46.0,19.0,-100.00,West,271,8.0,17.0,33,0.00,,,0.04,,2013-02-12 04:21:00,
2013-02-11 23:32:00,46.0,19.0,-100.00,West,271,8.0,17.0,33,0.00,,,0.04,,2013-02-12 04:32:00,